Location: Doughton Park
(36.4224°N, 81.1835°W)
Time: 14:58:26
(UTC-04:00)

ISS - All Passes

Search period start: 02 September 2015 00:00
Search period end: 12 September 2015 00:00
Orbit: 400 x 403 km, 51.6° (Epoch: 01 September)

Date Brightness Start Highest point End Pass type
(mag) Time Alt. Az. Time Alt. Az. Time Alt. Az.
02 Sep - 08:11:08 10° SSW 08:14:02 31° SE 08:16:58 10° ENE daylight
02 Sep - 09:47:44 10° W 09:50:28 24° NNW 09:53:12 10° NNE daylight
02 Sep - 14:40:59 10° NNW 14:43:15 17° NNE 14:45:32 10° ENE daylight
02 Sep - 16:16:42 10° WNW 16:19:54 53° SW 16:23:03 10° SSE daylight
03 Sep - 07:19:00 10° SSE 07:20:53 15° SE 07:22:52 10° E daylight
03 Sep - 08:53:56 10° WSW 08:57:03 44° NW 09:00:12 10° NE daylight
03 Sep - 13:48:28 10° N 13:49:41 12° NNE 13:50:57 10° NE daylight
03 Sep - 15:23:24 10° NW 15:26:38 67° NE 15:29:51 10° ESE daylight
04 Sep - 08:00:30 10° SW 08:03:45 86° SE 08:07:01 10° NE daylight
04 Sep - 09:38:46 10° WNW 09:40:35 14° NNW 09:42:21 10° N daylight
04 Sep - 14:30:18 10° NNW 14:33:17 33° NE 14:36:16 10° ESE daylight
04 Sep - 16:07:03 10° W 16:09:34 20° SW 16:12:01 10° S daylight
05 Sep - 07:07:30 10° SSW 07:10:33 37° SE 07:13:36 10° ENE daylight
05 Sep - 08:44:26 10° W 08:47:03 21° NNW 08:49:38 10° NNE daylight
05 Sep - 13:37:24 10° NNW 13:39:50 19° NNE 13:42:18 10° ENE daylight
05 Sep - 15:13:17 10° WNW 15:16:24 44° SW 15:19:29 10° SSE daylight
06 Sep - 06:15:09 10° S 06:17:23 18° SE 06:19:42 10° E visible
06 Sep - 07:50:33 10° WSW 07:53:37 37° NW 07:56:42 10° NE daylight
06 Sep - 12:44:45 10° N 12:46:17 13° NNE 12:47:53 10° NE daylight
06 Sep - 14:19:55 10° NW 14:23:10 81° NE 14:26:25 10° SE daylight
07 Sep - 06:57:02 10° SW 07:00:17 78° NW 07:03:33 10° NE daylight
07 Sep - 08:35:38 10° NW 08:37:11 13° NNW 08:38:41 10° N daylight
07 Sep - 13:26:47 10° NW 13:29:50 38° NE 13:32:54 10° ESE daylight
07 Sep - 15:03:49 10° W 15:06:04 17° SW 15:08:14 10° S daylight
08 Sep - 06:03:56 10° SSW 06:07:03 45° SE 06:10:11 10° ENE visible
08 Sep - 07:41:11 10° WNW 07:43:38 19° NNW 07:46:03 10° NNE daylight
08 Sep - 12:33:49 10° NNW 12:36:25 22° NNE 12:39:02 10° E daylight
08 Sep - 14:09:54 10° WNW 14:12:55 36° SW 14:15:55 10° SSE daylight
09 Sep - 05:11:23 10° S 05:13:53 21° SE 05:16:27 10° E visible
09 Sep - 06:47:12 10° W 06:50:11 32° NW 06:53:10 10° NNE daylight
09 Sep - 11:41:06 10° N 11:42:54 14° NNE 11:44:45 10° ENE daylight
09 Sep - 13:16:27 10° NW 13:19:43 83° SW 13:22:57 10° SE daylight
10 Sep - 05:53:35 10° WSW 05:56:49 65° NW 06:00:04 10° NE visible
10 Sep - 07:32:34 10° NW 07:33:48 12° NNW 07:34:58 10° N daylight
10 Sep - 12:23:15 10° NW 12:26:24 45° NE 12:29:32 10° ESE daylight
10 Sep - 14:00:40 10° W 14:02:34 14° SW 14:04:22 10° SSW daylight
11 Sep - 05:00:23 10° SW 05:03:34 56° SE 05:06:47 10° ENE visible
11 Sep - 06:37:57 10° WNW 06:40:14 17° NNW 06:42:29 10° NNE visible
11 Sep - 11:30:16 10° NNW 11:33:00 24° NNE 11:35:45 10° E daylight
11 Sep - 13:06:32 10° WNW 13:09:26 30° SW 13:12:18 10° SSE daylight
